This demonstration page uses our WeatherBlox Daily Observations layout. Learn more.

Left ArrowRight Arrow

Hourly Observations for October 1, 2016

Temp ( °F °C ) Dew Point ( °F °C ) Humidity (%) Winds ( mph kmh ) Pressure ( in mb ) Visibility ( mi km ) Precip ( " mm )
12:15 am 00:15 Mostly Cloudy 55 13 54 12 94 94 N N/A 30 1016 10 16.0934 N/A
12:36 am 00:36 Mostly Cloudy 55 13 54 12 94 94 N N/A 30.03 1017 10 16.0934 N/A
12:55 am 00:55 Cloudy 55 13 54 12 94 94 N N/A 30.03 1017 10 16.0934 N/A
1:16 am 01:16 Mostly Cloudy 55 13 54 12 94 94 N N/A 30.03 1017 10 16.0934 N/A
1:36 am 01:36 Cloudy 55 13 54 12 94 94 N N/A 30.03 1017 10 16.0934 N/A
1:55 am 01:55 Cloudy 55 13 54 12 94 94 N N/A 30.03 1017 10 16.0934 N/A
2:16 am 02:16 Mostly Cloudy 54 12 54 12 100 100 N N/A 30.03 1017 10 16.0934 N/A
2:36 am 02:36 Mostly Cloudy 54 12 52 11 94 94 N N/A 30 1016 10 16.0934 N/A
2:55 am 02:55 Cloudy 54 12 52 11 94 94 SSE 3 6 30 1016 10 16.0934 N/A
3:16 am 03:16 Partly Cloudy 54 12 52 11 94 94 N N/A 30 1016 10 16.0934 N/A
3:36 am 03:36 Partly Cloudy 52 11 52 11 100 100 N N/A 30.03 1017 7 11.26538 N/A
3:55 am 03:55 Partly Cloudy 50 10 50 10 100 100 N N/A 30.03 1017 5 8.0467 N/A
4:16 am 04:16 Clear 50 10 50 10 100 100 SE 3 6 30.03 1017 3 4.82802 N/A
4:36 am 04:36 Clear 50 10 50 10 100 100 SSW 3 6 30.03 1017 5 8.0467 N/A
4:55 am 04:55 Partly Cloudy 52 11 50 10 94 94 N N/A 30.03 1017 5 8.0467 N/A
5:16 am 05:16 Partly Cloudy 50 10 50 10 100 100 N N/A 30.03 1017 4 6.43736 N/A
5:36 am 05:36 Clear 50 10 50 10 100 100 N N/A 30.03 1017 4 6.43736 N/A
5:55 am 05:55 Clear 50 10 50 10 100 100 N N/A 30.03 1017 3 4.82802 N/A
6:16 am 06:16 Clear 50 10 50 10 100 100 N N/A 30.03 1017 3 4.82802 N/A
6:36 am 06:36 Clear 50 10 50 10 100 100 N N/A 30.03 1017 3 4.82802 N/A
6:56 am 06:56 Clear 50 10 50 10 100 100 SE 5 7 30.03 1017 4 6.43736 N/A
7:16 am 07:16 Clear 50 10 50 10 100 100 N N/A 30.06 1018 4 6.43736 N/A
7:36 am 07:36 Clear 50 10 50 10 100 100 N N/A 30.06 1018 4 6.43736 N/A
7:56 am 07:56 Sunny 50 10 50 10 100 100 N N/A 30.06 1018 4 6.43736 N/A
8:16 am 08:16 Sunny 50 10 50 10 100 100 N N/A 30.06 1018 3 4.82802 N/A
8:36 am 08:36 Mostly Cloudy 52 11 52 11 100 100 N N/A 30.06 1018 3 4.82802 N/A
8:56 am 08:56 Mostly Cloudy 54 12 52 11 94 94 SE 3 6 30.03 1017 4 6.43736 N/A
9:16 am 09:16 Cloudy 55 13 54 12 94 94 SSE 3 6 30.03 1017 3 4.82802 N/A
9:36 am 09:36 Partly Cloudy 55 13 54 12 94 94 SE 5 7 30.03 1017 4 6.43736 N/A
9:56 am 09:56 Partly Cloudy 57 14 54 12 88 88 S 5 7 30.03 1017 5 8.0467 N/A
10:16 am 10:16 Cloudy 57 14 54 12 88 88 S 3 6 30.03 1017 5 8.0467 N/A
10:35 am 10:35 Cloudy 57 14 54 12 88 88 SSW 6 9 30.03 1017 7 11.26538 N/A
10:56 am 10:56 Cloudy 59 15 54 12 82 82 SSW 5 7 30.03 1017 7 11.26538 N/A
11:16 am 11:16 Cloudy 59 15 54 12 82 82 S 7 11 30.03 1017 10 16.0934 N/A
11:35 am 11:35 Cloudy 59 15 54 12 82 82 SSW 6 9 30.03 1017 10 16.0934 N/A
11:56 am 11:56 Cloudy 59 15 54 12 82 82 S 3 6 30.03 1017 10 16.0934 N/A
12:16 pm 12:16 Cloudy 61 16 54 12 77 77 S 6 9 30.03 1017 10 16.0934 N/A
12:36 pm 12:36 Cloudy 61 16 54 12 77 77 SSW 9 15 30.03 1017 10 16.0934 N/A
12:56 pm 12:56 Cloudy 63 17 54 12 73 73 SW 5 7 30.03 1017 10 16.0934 N/A
1:16 pm 13:16 Mostly Cloudy 63 17 54 12 73 73 SSE 6 9 30.03 1017 10 16.0934 N/A
1:35 pm 13:35 Partly Cloudy 63 17 54 12 73 73 SSE 3 6 30.03 1017 10 16.0934 N/A
1:56 pm 13:56 Partly Cloudy 63 17 54 12 73 73 S 6 9 30.03 1017 10 16.0934 N/A
2:16 pm 14:16 Partly Cloudy 63 17 54 12 73 73 S 5 7 30.03 1017 10 16.0934 N/A
2:36 pm 14:36 Mostly Cloudy 63 17 54 12 73 73 SSW 3 6 30 1016 10 16.0934 N/A
2:56 pm 14:56 Mostly Cloudy 63 17 54 12 73 73 S 5 7 30 1016 10 16.0934 N/A
3:16 pm 15:16 Cloudy 63 17 54 12 73 73 SSW 5 7 30 1016 10 16.0934 N/A
3:36 pm 15:36 Cloudy 63 17 54 12 73 73 SW 6 9 30 1016 10 16.0934 N/A
3:56 pm 15:56 Cloudy 64 18 54 12 68 68 N N/A 30 1016 10 16.0934 N/A
4:15 pm 16:15 Cloudy 63 17 54 12 73 73 N N/A 30 1016 10 16.0934 N/A
4:36 pm 16:36 Cloudy 61 16 55 13 83 83 N N/A 30 1016 10 16.0934 N/A
4:56 pm 16:56 Cloudy 61 16 55 13 83 83 N N/A 30 1016 10 16.0934 N/A
5:15 pm 17:15 Cloudy 61 16 54 12 77 77 S 3 6 30 1016 10 16.0934 N/A
5:36 pm 17:36 Cloudy 61 16 55 13 83 83 SSW 5 7 30 1016 10 16.0934 N/A
5:56 pm 17:56 Cloudy 63 17 55 13 77 77 SSW 5 7 30 1016 10 16.0934 N/A
6:15 pm 18:15 Cloudy 61 16 55 13 83 83 SSW 9 15 30 1016 10 16.0934 N/A
6:36 pm 18:36 Cloudy 61 16 55 13 83 83 SSW 6 9 30 1016 10 16.0934 N/A
6:56 pm 18:56 Cloudy 61 16 55 13 83 83 SSW 5 7 30 1016 10 16.0934 N/A
7:15 pm 19:15 Cloudy 59 15 54 12 82 82 SSW 6 9 30 1016 10 16.0934 N/A
7:36 pm 19:36 Cloudy 59 15 55 13 88 88 SSW 3 6 30 1016 10 16.0934 N/A
7:56 pm 19:56 Cloudy 59 15 55 13 88 88 N N/A 30 1016 10 16.0934 N/A
8:15 pm 20:15 Cloudy 59 15 55 13 88 88 N N/A 30 1016 10 16.0934 N/A
8:36 pm 20:36 Cloudy 59 15 55 13 88 88 N N/A 30 1016 10 16.0934 N/A
8:56 pm 20:56 Cloudy 59 15 55 13 88 88 N N/A 30 1016 10 16.0934 N/A
9:15 pm 21:15 Mostly Cloudy 57 14 55 13 94 94 N N/A 30 1016 10 16.0934 N/A
9:36 pm 21:36 Partly Cloudy 57 14 55 13 94 94 N N/A 30.03 1017 10 16.0934 N/A
9:56 pm 21:56 Partly Cloudy 55 13 54 12 94 94 N N/A 30.03 1017 10 16.0934 N/A
10:16 pm 22:16 Partly Cloudy 54 12 54 12 100 100 N N/A 30 1016 7 11.26538 N/A
10:36 pm 22:36 Partly Cloudy 54 12 54 12 100 100 N N/A 30 1016 5 8.0467 N/A
10:56 pm 22:56 Partly Cloudy 54 12 54 12 100 100 N N/A 30 1016 5 8.0467 N/A
11:16 pm 23:16 Partly Cloudy 54 12 52 11 94 94 N N/A 30 1016 4 6.43736 N/A
11:36 pm 23:36 Clear 52 11 50 10 94 94 N N/A 30.03 1017 3 4.82802 N/A
11:56 pm 23:56 Clear 52 11 52 11 100 100 N N/A 30.03 1017 3 4.82802 N/A

Powered by AerisWeather